SCP
0 0 0 0 0 0 0 0 0 0 0 0 0 0 0 0 0 0 0 0 0 0 0 0 0 0 -0 0 0 0 0 0 0 0 0 0 0 0 0 0 0 0 0 0 0 0 0
0 0 0 0 0 0 0 0 0 0 0 0 0 0 0 0 0 0 0 0 0 0 0 0 0 0 0 -0 0 0 0 0 0 0 0 0 0 0 0 0 0 0 0 0 0 0 0
0 0 0 0 0 0 0 0 0 0 0 0 0 0 0 0 0 0 0 0 0 0 0 0 0 0 0 -0 0 0 0 0 0 0 0 0 0 0 0 0 0 0 0 0 0 0 0
0 0 0 0 0 0 0 0 0 0 0 0 0 0 0 0 0 0 0 0 0 0 0 0 0 0 0 0 0 0 0 0 0 0 0 0 0 0 0 0 0 0 0 0 0 0 0
0 0 0 0 0 0 0 0 0 0 0 0 0 0 0 0 0 0 0 0 0 0 0 0 0 0 0 0 0 0 0 0 0 0 0 0 0 0 0 0 0 0 0 0 0 0 0
0 0 0 0 0 0 0 0 0 0 0 0 0 0 0 0 0 0 0 0 0 0 0 0 0 0 0 0 0 0 0 0 0 0 0 0 0 0 0 0 0 0 0 0 0 0 0
0 0 0 0 0 0 0 0 0 0 0 0 0 0 0 0 0 0 0 0 0 0 0 0 0 0 0 0 0 0 0 0 0 0 0 0 0 0 0 0 0 0 0 0 0 0 0
0 0 0 0 0 0 0 0 0 0 0 0 0 0 0 0 0 0 0 0 0 0 0 0 0 0 0 0 0 0 0 0 0 0 0 0 0 0 0 0 0 0 0 0 0 0 0
0 0 0 0 0 0 0 0 0 0 0 0 0 0 0 0 0 0 0 0 0 0 0 0 -0 0 0 0 0 0 0 0 0 0 0 0 0 0 0 0 0 0 0 0 0 -0 -0
0 0 0 0 0 0 0 0 0 0 0 0 0 0 0 0 0 0 0 0 0 0 0 0 0 -0 0 0 0 0 0 0 0 0 0 0 0 0 0 0 0 0 0 0 0 0 0
0 0 0 0 0 0 0 0 0 0 0 0 0 0 0 0 0 0 0 0 0 0 0 0 0 -0 -0 0 0 0 0 0 0 0 0 0 0 0 0 0 0 0 0 0 0 0 0
0 0 0 0 0 0 0 0 0 0 0 0 0 0 0 0 0 0 0 0 0 0 0 0 0 0 0 0 0 -0 0 0 0 0 0 0 0 0 0 0 0 0 0 0 0 0 0
0 0 0 0 0 0 0 0 0 0 0 0 0 0 0 0 0 0 0 0 0 0 0 0 0 0 0 0 0 0 0 0 0 0 0 0 0 0 0 0 0 -0 0 0 0 0 0
0 0 0 0 0 0 0 0 0 0 0 0 0 0 0 0 0 0 0 0 0 0 0 0 0 0 0 0 0 0 0 0 0 0 0 0 0 0 0 0 0 0 0 0 0 0 0
0 0 0 0 0 0 0 0 0 0 0 0 0 0 0 0 0 0 0 0 0 0 0 0 0 0 0 0 0 0 0 0 -0 0 0 0 0 0 0 0 0 0 0 0 0 0 0
0 0 0 0 0 0 0 0 0 0 0 0 0 0 0 0 -0 0 0 0 0 0 0 -0 0 -0 -0 0 0 0 0 -0 -0 0 0 0 0 0 0 0 0 0 0 0 0 0 0
0 0 0 0 0 0 0 0 0 0 0 0 0 0 0 0 -0 0 0 0 -0 0 -0 0 0 0 0 0 0 0 -0 -0 -0 0 0 0 0 0 0 0 0 0 0 0 0 0 0
0 0 0 0 0 0 0 0 0 0 0 0 0 0 0 0 -0 0 -0 0 0 -0 0 -0 0 0 -0 0 0 0 -0 -0 -0 -0 0 0 0 0 0 0 0 0 0 0 0 0 0
0 0 0 0 0 0 0 0 0 0 0 0 0 0 0 0 -0 0 0 0 0 0 -0 0 0 0 0 -0 -0 0 0 -0 0 -0 0 0 0 0 0 0 0 0 0 0 0 0 0
0 0 0 0 0 0 0 0 0 0 0 0 0 0 0 0 -0 -0 0 0 -0 -0 0 -0 -0 0 -0 -0 -0 0 -0 0 0 0 0 0 0 0 0 0 0 0 0 0 0 0 0
0 0 0 0 0 0 0 0 0 0 0 0 0 0 0 0 0 0 0 -0 0 -0 0 -0 0 0 -0 -0 0 0 0 0 -0 -0 -0 0 0 0 0 0 0 0 0 0 0 0 0
0 0 0 0 0 0 0 0 0 0 0 0 0 0 0 0 0 0 0 0 -0 0 0 -0 0 -0 -0 -0 0 0 0 0 0 -0 -0 0 0 0 0 0 0 0 0 0 0 0 0
0 0 0 0 0 0 0 0 0 0 0 0 0 0 0 0 -0 -0 0 0 -0 -0 -0 -0 0 -0 -0 0 0 0 0 0 0 0 0 0 0 0 0 0 0 0 0 0 0 0 0
0 0 0 0 0 0 0 0 0 0 0 0 0 0 0 0 -0 -0 -0 -0 -0 -0 -0 0 0 0 0 0 0 0 0 0 0 0 0 0 0 0 0 0 0 0 0 0 0 0 0
0 0 0 0 0 0 0 0 0 0 0 0 0 0 -0 0 -0 -0 -0 -0 -0 -0 -0 -0 0 -0 -0 -0 0 0 0 0 0 0 0 0 0 0 0 0 0 0 0 0 0 0 0
0 0 0 0 0 0 0 0 -0 0 -0 0 0 0 -0 0 0 -0 -0 -0 -0 -0 -0 0 -0 -0 0 0 -0 0 0 0 0 0 0 0 0 0 0 0 0 0 0 0 0 0 0
0 0 0 0 0 0 0 0 -0 -0 0 0 0 -0 -0 0 -0 0 -0 -0 -0 -0 -0 0 -0 0 0 0 0 0 0 0 0 0 0 0 0 0 0 0 0 0 0 0 0 0 0
0 0 0 0 0 0 0 -0 -0 -0 0 0 0 -0 -0 0 -0 0 0 -0 -0 -0 0 0 0 0 0 0 0 0 0 0 0 0 0 0 0 0 0 0 0 0 0 0 0 0 -0
0 0 0 0 0 0 -0 -0 0 0 0 0 0 -0 -0 0 -0 -0 -0 -0 -0 -0 -0 0 0 0 0 0 0 0 0 0 0 0 0 0 0 0 0 0 0 0 -0 0 -0 -0 -0
Wind_Speed_500mb
42 43 44 43 42 42 42 44 46 47 48 49 49 50 52 53 55 55 53 52 51 48 45 47 49 52 48 20 61 52 30 20 6 38 61 55 45 40 16 12 31 13 23 39 45 60 70
43 43 44 46 48 47 47 48 50 52 54 55 55 53 53 53 54 55 56 57 55 54 54 47 44 43 37 37 50 17 10 39 52 33 55 63 32 44 12 25 23 16 54 48 51 57 62
43 43 44 45 46 47 48 49 51 52 53 54 55 56 57 58 59 59 59 61 62 57 57 55 53 41 51 98 46 31 25 24 41 49 50 66 75 36 31 13 48 49 25 25 27 32 23
45 45 46 48 49 51 52 54 55 55 56 56 57 58 59 61 62 62 60 61 64 61 56 65 52 33 51 72 71 75 59 79 53 57 49 40 63 63 34 21 19 13 22 33 30 17 25
48 49 50 51 52 53 54 54 55 57 59 60 61 61 61 61 61 64 61 60 64 63 67 56 26 28 38 39 36 23 39 68 50 57 55 41 49 43 34 14 10 9 18 13 13 16 15
51 52 52 52 53 54 55 57 59 61 62 63 63 63 64 63 63 65 65 63 64 52 35 13 19 17 41 46 25 19 36 43 50 49 51 52 34 14 23 16 30 21 9 7 14 11 17
51 52 54 55 57 59 61 62 63 62 62 63 63 64 65 65 64 62 67 70 22 12 11 28 29 38 54 57 65 47 35 36 57 51 32 44 19 40 43 34 15 16 14 11 12 22 14
54 56 57 59 61 62 63 65 67 68 69 69 69 68 69 68 66 61 59 31 24 33 38 47 73 92 102 83 60 61 44 34 35 34 36 22 52 31 18 31 32 22 21 17 15 19 13
56 58 60 61 63 65 68 69 70 71 70 70 70 71 72 72 67 54 32 39 36 60 19 41 61 65 93 68 91 74 43 59 34 36 46 47 7 39 31 33 36 31 29 17 16 29 10
57 59 61 62 65 66 68 70 72 73 73 74 72 73 74 75 52 37 61 35 36 38 9 19 15 20 30 40 19 65 83 46 29 54 36 39 47 35 40 36 32 34 19 30 29 20 12
60 61 63 65 67 68 68 70 72 75 77 79 82 78 75 67 69 65 57 29 19 9 11 17 11 13 4 26 25 9 43 48 41 32 36 46 48 51 41 48 30 29 29 33 36 13 8
60 63 65 66 67 68 70 72 75 77 80 83 86 81 77 81 73 68 19 13 13 4 17 16 13 24 43 26 21 24 9 40 32 26 31 48 22 41 54 26 41 29 24 21 13 12 19
62 63 63 65 66 68 71 73 75 78 82 86 91 89 79 71 75 49 13 6 3 13 11 13 13 34 33 32 28 7 12 20 13 30 34 34 38 36 25 40 38 28 30 12 8 13 17
62 62 63 64 63 65 68 73 76 78 84 90 95 93 83 60 30 7 13 5 16 14 27 30 34 45 25 13 11 7 2 9 17 32 16 29 29 48 46 41 36 40 28 11 13 9 8
60 60 61 61 63 65 67 71 76 80 83 91 97 96 65 56 24 20 13 7 11 10 17 24 40 29 0 12 13 3 5 9 10 25 12 30 36 26 42 34 42 40 35 21 12 6 8
58 60 61 61 63 65 66 67 72 79 82 86 95 84 26 46 40 32 8 13 9 9 22 28 33 19 25 18 15 8 10 13 9 7 16 12 24 37 33 26 34 45 14 15 1 15 9
58 59 61 61 62 62 65 67 69 76 81 83 69 35 25 51 31 11 7 11 20 28 36 10 7 14 19 31 23 16 10 10 8 9 15 11 6 10 22 20 28 8 38 3 14 10 12
59 59 60 60 62 61 64 68 67 68 76 79 33 12 44 42 14 10 5 22 14 34 42 23 11 22 21 22 9 13 22 11 15 10 4 4 4 7 17 3 1 11 7 17 15 7 6
58 60 61 60 59 62 64 66 63 59 61 66 39 21 30 31 9 10 16 21 34 28 27 9 8 16 5 10 6 17 17 15 30 13 15 8 12 11 18 4 8 6 25 13 14 8 10
58 59 59 56 57 62 64 59 54 54 55 54 15 9 16 13 41 16 24 20 25 41 20 14 22 4 8 8 11 9 12 12 37 15 18 13 7 7 19 10 13 11 21 20 16 10 11
60 58 58 54 54 58 58 53 51 52 50 39 9 7 16 13 24 31 31 22 30 27 17 20 9 4 10 9 12 10 13 12 20 21 9 8 13 13 12 22 24 2 7 6 11 16 14
59 57 54 54 54 56 57 44 46 47 49 29 15 14 16 43 32 27 25 16 34 26 11 9 15 19 12 11 13 11 14 4 4 15 6 6 7 10 12 23 41 7 12 18 16 20 23
60 56 54 56 56 53 47 39 44 41 44 21 32 37 25 20 18 21 12 28 35 47 21 24 27 22 15 17 15 32 28 32 7 5 7 7 3 7 6 13 21 3 5 17 23 15 25
55 53 54 53 51 48 46 41 41 36 35 36 40 38 14 15 15 23 37 39 40 47 28 20 36 18 10 45 49 22 30 19 12 15 8 2 6 6 9 11 10 6 15 25 33 21 10
52 52 50 51 53 52 50 49 43 39 36 41 43 35 12 10 30 36 42 35 52 53 29 16 30 48 49 31 6 6 2 2 7 8 21 4 7 8 8 9 7 9 13 18 13 10 11
51 51 50 54 55 56 48 50 49 41 36 42 42 31 34 14 7 45 40 46 19 18 18 21 46 51 16 5 4 7 5 5 4 4 10 15 4 8 6 10 8 7 10 35 18 4 6
51 49 52 56 61 60 49 47 46 43 36 36 45 27 35 26 37 28 22 14 21 25 12 17 40 14 21 5 1 3 5 9 7 10 3 8 5 5 7 10 5 2 13 25 11 11 28
49 49 55 57 56 55 50 44 42 39 35 35 49 33 22 24 56 42 26 64 62 21 11 29 22 7 6 12 9 7 4 2 6 9 12 7 6 4 6 9 2 9 7 16 14 34 58
47 50 51 53 54 55 50 45 41 39 39 38 41 30 22 30 48 71 42 32 36 44 43 16 13 19 7 5 5 5 5 9 5 5 5 8 8 6 6 6 7 38 58 56 65 69 63
Wind_Direction_500mb
358 355 354 351 348 346 344 342 341 338 334 332 328 325 325 325 324 322 320 315 312 308 305 303 303 303 308 269 253 270 240 256 329 201 196 197 205 204 193 217 233 227 251 254 257 255 258
359 357 356 355 354 352 348 344 341 338 336 333 331 327 322 319 316 316 314 310 307 306 302 301 298 299 287 267 296 310 234 229 242 220 210 205 214 216 216 235 201 235 235 245 253 256 256
2 359 356 353 351 348 345 342 340 337 334 332 329 327 324 321 319 316 313 309 307 305 303 298 293 289 263 251 264 276 252 234 241 237 222 218 215 187 216 302 243 237 263 261 240 239 241
5 1 358 356 353 350 348 345 341 338 335 333 329 326 324 321 319 315 312 307 302 300 298 292 286 273 255 283 288 267 241 243 228 230 239 239 221 219 239 264 314 211 236 248 254 228 249
4 1 358 356 353 351 348 345 341 338 336 334 331 327 323 321 318 315 313 309 305 302 289 281 259 242 270 280 264 321 261 234 221 216 228 227 214 214 231 207 281 235 245 227 266 201 218
2 359 357 356 353 350 348 346 343 341 338 334 330 326 322 318 316 314 314 312 309 297 276 226 245 247 263 252 257 323 307 225 196 212 220 213 204 201 215 179 214 224 210 203 200 239 199
360 358 357 354 352 350 348 346 343 340 336 333 330 327 322 319 316 316 316 318 322 285 209 216 229 216 276 280 280 269 292 205 202 198 199 198 207 216 215 216 230 234 227 240 225 244 229
359 357 355 353 351 348 347 345 342 339 337 334 332 329 325 321 317 317 307 288 311 319 297 265 258 254 260 258 272 253 242 207 198 207 195 212 227 216 218 224 221 225 223 240 278 259 180
356 355 353 350 348 346 344 344 342 340 336 333 331 328 327 326 321 317 290 288 327 338 280 290 252 248 245 235 246 255 241 206 205 205 206 206 243 209 211 223 216 218 220 221 230 276 248
353 351 349 347 346 344 342 342 342 341 339 337 334 330 329 326 324 310 297 302 311 333 289 287 244 273 216 214 275 251 235 216 225 213 210 222 223 202 208 223 207 225 204 227 240 251 245
350 348 346 345 344 343 341 341 341 340 339 337 335 330 324 320 306 301 319 310 326 106 300 279 251 28 142 164 312 29 254 210 218 206 184 219 204 217 214 219 201 225 225 231 236 217 217
346 345 344 343 343 342 342 340 338 338 337 335 334 329 324 315 305 306 311 315 0 111 243 265 296 12 352 344 345 348 21 214 222 223 219 222 211 198 223 213 223 215 232 232 232 204 237
344 344 343 342 343 342 341 341 337 336 335 333 332 328 320 311 292 309 272 333 126 224 310 253 321 346 350 337 325 36 18 334 274 208 217 222 222 231 206 220 233 213 220 236 248 216 227
343 343 344 343 343 341 340 340 338 335 334 333 331 331 330 335 334 204 152 101 222 252 233 302 323 328 312 309 34 45 112 285 260 257 223 208 217 211 213 212 215 224 216 178 201 172 188
343 344 344 344 343 342 339 339 339 339 334 333 335 336 339 3 358 180 160 183 225 226 268 299 314 306 346 330 336 111 251 220 274 181 230 203 231 215 218 219 217 226 217 195 127 349 109
343 344 345 345 344 342 339 338 339 339 337 337 339 336 12 7 349 193 231 234 251 256 304 319 293 251 283 299 324 242 189 190 203 308 276 284 225 219 219 210 225 211 200 180 315 147 157
344 344 345 345 344 343 343 340 336 340 341 340 350 334 7 338 334 156 294 241 284 299 311 295 283 279 258 280 266 275 239 165 171 58 1 213 169 327 203 202 231 181 208 195 123 153 148
343 345 344 344 343 344 343 343 342 342 345 346 351 313 352 4 43 314 312 337 320 286 296 292 301 271 270 301 272 238 204 229 136 167 220 220 294 166 223 164 324 297 300 181 178 174 132
342 341 342 342 345 345 341 339 343 348 355 342 319 283 0 356 1 328 306 309 299 299 305 282 253 241 29 293 221 245 194 185 158 152 193 155 213 154 150 4 341 164 259 206 111 100 178
340 340 338 340 343 342 343 346 351 354 353 343 308 311 338 347 1 328 322 309 314 308 302 302 278 29 331 288 242 256 202 166 170 174 220 44 254 191 207 145 150 172 221 176 130 121 152
339 338 338 340 341 342 344 349 352 351 352 350 315 329 334 315 331 316 308 290 341 331 295 296 264 223 295 288 303 243 239 148 183 205 172 226 204 193 139 157 163 4 50 41 131 158 154
338 337 339 340 342 341 340 346 349 351 348 8 325 338 314 298 303 310 311 339 326 311 267 301 311 320 303 274 240 302 351 355 213 197 161 214 196 141 67 146 158 156 50 76 100 104 85
338 340 340 338 336 336 340 348 348 348 348 349 328 319 292 294 307 311 308 320 316 317 293 334 331 311 295 309 320 287 267 276 277 296 163 261 103 87 106 136 126 60 143 85 92 84 136
335 337 339 339 345 344 343 344 343 343 341 331 327 327 295 300 310 306 306 320 323 318 305 320 343 310 313 311 302 267 253 242 232 262 167 32 67 74 134 128 143 112 130 109 100 89 53
337 336 336 340 340 337 339 338 336 331 331 323 324 323 284 284 296 302 324 321 316 313 307 313 321 314 307 296 241 161 258 207 236 174 176 122 92 114 165 124 131 99 157 153 136 167 152
335 335 334 337 335 333 334 335 334 332 326 319 315 316 301 304 252 312 311 309 311 321 319 302 322 324 314 287 291 185 171 147 149 109 48 93 36 212 179 96 87 260 172 136 112 12 47
333 333 335 333 333 331 330 333 335 334 328 318 307 318 302 279 285 304 303 300 312 309 280 294 326 327 340 303 313 47 94 134 151 142 181 113 32 62 61 86 26 114 348 161 82 205 133
332 332 333 337 340 335 331 331 333 332 329 319 309 322 292 275 290 281 290 302 295 288 291 312 320 14 303 360 5 14 21 320 134 131 129 108 99 53 70 81 130 353 30 135 145 106 121
331 333 337 337 336 336 333 327 327 329 326 322 313 334 308 275 276 303 304 325 322 300 273 301 304 308 284 317 353 321 344 359 27 79 305 66 159 141 78 81 7 82 103 109 113 112 119
Wind_Speed_850mb
42 43 44 43 42 42 42 44 46 47 48 49 49 50 52 53 55 55 53 52 51 48 45 47 49 52 48 20 61 52 30 20 6 38 61 55 45 40 16 12 31 13 23 39 45 60 70
43 43 44 46 48 47 47 48 50 52 54 55 55 53 53 53 54 55 56 57 55 54 54 47 44 43 37 37 50 17 10 39 52 33 55 63 32 44 12 25 23 16 54 48 51 57 62
43 43 44 45 46 47 48 49 51 52 53 54 55 56 57 58 59 59 59 61 62 57 57 55 53 41 51 98 46 31 25 24 41 49 50 66 75 36 31 13 48 49 25 25 27 32 23
45 45 46 48 49 51 52 54 55 55 56 56 57 58 59 61 62 62 60 61 64 61 56 65 52 33 51 72 71 75 59 79 53 57 49 40 63 63 34 21 19 13 22 33 30 17 25
48 49 50 51 52 53 54 54 55 57 59 60 61 61 61 61 61 64 61 60 64 63 67 56 26 28 38 39 36 23 39 68 50 57 55 41 49 43 34 14 10 9 18 13 13 16 15
51 52 52 52 53 54 55 57 59 61 62 63 63 63 64 63 63 65 65 63 64 52 35 13 19 17 41 46 25 19 36 43 50 49 51 52 34 14 23 16 30 21 9 7 14 11 17
51 52 54 55 57 59 61 62 63 62 62 63 63 64 65 65 64 62 67 70 22 12 11 28 29 38 54 57 65 47 35 36 57 51 32 44 19 40 43 34 15 16 14 11 12 22 14
54 56 57 59 61 62 63 65 67 68 69 69 69 68 69 68 66 61 59 31 24 33 38 47 73 92 102 83 60 61 44 34 35 34 36 22 52 31 18 31 32 22 21 17 15 19 13
56 58 60 61 63 65 68 69 70 71 70 70 70 71 72 72 67 54 32 39 36 60 19 41 61 65 93 68 91 74 43 59 34 36 46 47 7 39 31 33 36 31 29 17 16 29 10
57 59 61 62 65 66 68 70 72 73 73 74 72 73 74 75 52 37 61 35 36 38 9 19 15 20 30 40 19 65 83 46 29 54 36 39 47 35 40 36 32 34 19 30 29 20 12
60 61 63 65 67 68 68 70 72 75 77 79 82 78 75 67 69 65 57 29 19 9 11 17 11 13 4 26 25 9 43 48 41 32 36 46 48 51 41 48 30 29 29 33 36 13 8
60 63 65 66 67 68 70 72 75 77 80 83 86 81 77 81 73 68 19 13 13 4 17 16 13 24 43 26 21 24 9 40 32 26 31 48 22 41 54 26 41 29 24 21 13 12 19
62 63 63 65 66 68 71 73 75 78 82 86 91 89 79 71 75 49 13 6 3 13 11 13 13 34 33 32 28 7 12 20 13 30 34 34 38 36 25 40 38 28 30 12 8 13 17
62 62 63 64 63 65 68 73 76 78 84 90 95 93 83 60 30 7 13 5 16 14 27 30 34 45 25 13 11 7 2 9 17 32 16 29 29 48 46 41 36 40 28 11 13 9 8
60 60 61 61 63 65 67 71 76 80 83 91 97 96 65 56 24 20 13 7 11 10 17 24 40 29 0 12 13 3 5 9 10 25 12 30 36 26 42 34 42 40 35 21 12 6 8
58 60 61 61 63 65 66 67 72 79 82 86 95 84 26 46 40 32 8 13 9 9 22 28 33 19 25 18 15 8 10 13 9 7 16 12 24 37 33 26 34 45 14 15 1 15 9
58 59 61 61 62 62 65 67 69 76 81 83 69 35 25 51 31 11 7 11 20 28 36 10 7 14 19 31 23 16 10 10 8 9 15 11 6 10 22 20 28 8 38 3 14 10 12
59 59 60 60 62 61 64 68 67 68 76 79 33 12 44 42 14 10 5 22 14 34 42 23 11 22 21 22 9 13 22 11 15 10 4 4 4 7 17 3 1 11 7 17 15 7 6
58 60 61 60 59 62 64 66 63 59 61 66 39 21 30 31 9 10 16 21 34 28 27 9 8 16 5 10 6 17 17 15 30 13 15 8 12 11 18 4 8 6 25 13 14 8 10
58 59 59 56 57 62 64 59 54 54 55 54 15 9 16 13 41 16 24 20 25 41 20 14 22 4 8 8 11 9 12 12 37 15 18 13 7 7 19 10 13 11 21 20 16 10 11
60 58 58 54 54 58 58 53 51 52 50 39 9 7 16 13 24 31 31 22 30 27 17 20 9 4 10 9 12 10 13 12 20 21 9 8 13 13 12 22 24 2 7 6 11 16 14
59 57 54 54 54 56 57 44 46 47 49 29 15 14 16 43 32 27 25 16 34 26 11 9 15 19 12 11 13 11 14 4 4 15 6 6 7 10 12 23 41 7 12 18 16 20 23
60 56 54 56 56 53 47 39 44 41 44 21 32 37 25 20 18 21 12 28 35 47 21 24 27 22 15 17 15 32 28 32 7 5 7 7 3 7 6 13 21 3 5 17 23 15 25
55 53 54 53 51 48 46 41 41 36 35 36 40 38 14 15 15 23 37 39 40 47 28 20 36 18 10 45 49 22 30 19 12 15 8 2 6 6 9 11 10 6 15 25 33 21 10
52 52 50 51 53 52 50 49 43 39 36 41 43 35 12 10 30 36 42 35 52 53 29 16 30 48 49 31 6 6 2 2 7 8 21 4 7 8 8 9 7 9 13 18 13 10 11
51 51 50 54 55 56 48 50 49 41 36 42 42 31 34 14 7 45 40 46 19 18 18 21 46 51 16 5 4 7 5 5 4 4 10 15 4 8 6 10 8 7 10 35 18 4 6
51 49 52 56 61 60 49 47 46 43 36 36 45 27 35 26 37 28 22 14 21 25 12 17 40 14 21 5 1 3 5 9 7 10 3 8 5 5 7 10 5 2 13 25 11 11 28
49 49 55 57 56 55 50 44 42 39 35 35 49 33 22 24 56 42 26 64 62 21 11 29 22 7 6 12 9 7 4 2 6 9 12 7 6 4 6 9 2 9 7 16 14 34 58
47 50 51 53 54 55 50 45 41 39 39 38 41 30 22 30 48 71 42 32 36 44 43 16 13 19 7 5 5 5 5 9 5 5 5 8 8 6 6 6 7 38 58 56 65 69 63
Wind_Direction_850mb
358 355 354 351 348 346 344 342 341 338 334 332 328 325 325 325 324 322 320 315 312 308 305 303 303 303 308 269 253 270 240 256 329 201 196 197 205 204 193 217 233 227 251 254 257 255 258
359 357 356 355 354 352 348 344 341 338 336 333 331 327 322 319 316 316 314 310 307 306 302 301 298 299 287 267 296 310 234 229 242 220 210 205 214 216 216 235 201 235 235 245 253 256 256
2 359 356 353 351 348 345 342 340 337 334 332 329 327 324 321 319 316 313 309 307 305 303 298 293 289 263 251 264 276 252 234 241 237 222 218 215 187 216 302 243 237 263 261 240 239 241
5 1 358 356 353 350 348 345 341 338 335 333 329 326 324 321 319 315 312 307 302 300 298 292 286 273 255 283 288 267 241 243 228 230 239 239 221 219 239 264 314 211 236 248 254 228 249
4 1 358 356 353 351 348 345 341 338 336 334 331 327 323 321 318 315 313 309 305 302 289 281 259 242 270 280 264 321 261 234 221 216 228 227 214 214 231 207 281 235 245 227 266 201 218
2 359 357 356 353 350 348 346 343 341 338 334 330 326 322 318 316 314 314 312 309 297 276 226 245 247 263 252 257 323 307 225 196 212 220 213 204 201 215 179 214 224 210 203 200 239 199
360 358 357 354 352 350 348 346 343 340 336 333 330 327 322 319 316 316 316 318 322 285 209 216 229 216 276 280 280 269 292 205 202 198 199 198 207 216 215 216 230 234 227 240 225 244 229
359 357 355 353 351 348 347 345 342 339 337 334 332 329 325 321 317 317 307 288 311 319 297 265 258 254 260 258 272 253 242 207 198 207 195 212 227 216 218 224 221 225 223 240 278 259 180
356 355 353 350 348 346 344 344 342 340 336 333 331 328 327 326 321 317 290 288 327 338 280 290 252 248 245 235 246 255 241 206 205 205 206 206 243 209 211 223 216 218 220 221 230 276 248
353 351 349 347 346 344 342 342 342 341 339 337 334 330 329 326 324 310 297 302 311 333 289 287 244 273 216 214 275 251 235 216 225 213 210 222 223 202 208 223 207 225 204 227 240 251 245
350 348 346 345 344 343 341 341 341 340 339 337 335 330 324 320 306 301 319 310 326 106 300 279 251 28 142 164 312 29 254 210 218 206 184 219 204 217 214 219 201 225 225 231 236 217 217
346 345 344 343 343 342 342 340 338 338 337 335 334 329 324 315 305 306 311 315 0 111 243 265 296 12 352 344 345 348 21 214 222 223 219 222 211 198 223 213 223 215 232 232 232 204 237
344 344 343 342 343 342 341 341 337 336 335 333 332 328 320 311 292 309 272 333 126 224 310 253 321 346 350 337 325 36 18 334 274 208 217 222 222 231 206 220 233 213 220 236 248 216 227
343 343 344 343 343 341 340 340 338 335 334 333 331 331 330 335 334 204 152 101 222 252 233 302 323 328 312 309 34 45 112 285 260 257 223 208 217 211 213 212 215 224 216 178 201 172 188
343 344 344 344 343 342 339 339 339 339 334 333 335 336 339 3 358 180 160 183 225 226 268 299 314 306 346 330 336 111 251 220 274 181 230 203 231 215 218 219 217 226 217 195 127 349 109
343 344 345 345 344 342 339 338 339 339 337 337 339 336 12 7 349 193 231 234 251 256 304 319 293 251 283 299 324 242 189 190 203 308 276 284 225 219 219 210 225 211 200 180 315 147 157
344 344 345 345 344 343 343 340 336 340 341 340 350 334 7 338 334 156 294 241 284 299 311 295 283 279 258 280 266 275 239 165 171 58 1 213 169 327 203 202 231 181 208 195 123 153 148
343 345 344 344 343 344 343 343 342 342 345 346 351 313 352 4 43 314 312 337 320 286 296 292 301 271 270 301 272 238 204 229 136 167 220 220 294 166 223 164 324 297 300 181 178 174 132
342 341 342 342 345 345 341 339 343 348 355 342 319 283 0 356 1 328 306 309 299 299 305 282 253 241 29 293 221 245 194 185 158 152 193 155 213 154 150 4 341 164 259 206 111 100 178
340 340 338 340 343 342 343 346 351 354 353 343 308 311 338 347 1 328 322 309 314 308 302 302 278 29 331 288 242 256 202 166 170 174 220 44 254 191 207 145 150 172 221 176 130 121 152
339 338 338 340 341 342 344 349 352 351 352 350 315 329 334 315 331 316 308 290 341 331 295 296 264 223 295 288 303 243 239 148 183 205 172 226 204 193 139 157 163 4 50 41 131 158 154
338 337 339 340 342 341 340 346 349 351 348 8 325 338 314 298 303 310 311 339 326 311 267 301 311 320 303 274 240 302 351 355 213 197 161 214 196 141 67 146 158 156 50 76 100 104 85
338 340 340 338 336 336 340 348 348 348 348 349 328 319 292 294 307 311 308 320 316 317 293 334 331 311 295 309 320 287 267 276 277 296 163 261 103 87 106 136 126 60 143 85 92 84 136
335 337 339 339 345 344 343 344 343 343 341 331 327 327 295 300 310 306 306 320 323 318 305 320 343 310 313 311 302 267 253 242 232 262 167 32 67 74 134 128 143 112 130 109 100 89 53
337 336 336 340 340 337 339 338 336 331 331 323 324 323 284 284 296 302 324 321 316 313 307 313 321 314 307 296 241 161 258 207 236 174 176 122 92 114 165 124 131 99 157 153 136 167 152
335 335 334 337 335 333 334 335 334 332 326 319 315 316 301 304 252 312 311 309 311 321 319 302 322 324 314 287 291 185 171 147 149 109 48 93 36 212 179 96 87 260 172 136 112 12 47
333 333 335 333 333 331 330 333 335 334 328 318 307 318 302 279 285 304 303 300 312 309 280 294 326 327 340 303 313 47 94 134 151 142 181 113 32 62 61 86 26 114 348 161 82 205 133
332 332 333 337 340 335 331 331 333 332 329 319 309 322 292 275 290 281 290 302 295 288 291 312 320 14 303 360 5 14 21 320 134 131 129 108 99 53 70 81 130 353 30 135 145 106 121
331 333 337 337 336 336 333 327 327 329 326 322 313 334 308 275 276 303 304 325 322 300 273 301 304 308 284 317 353 321 344 359 27 79 305 66 159 141 78 81 7 82 103 109 113 112 119